DELGM EDFM-EDFM

Flight info

Callsign DELGM
Flight time 0h 9m
Altitude 3500
Route RINEX3W RINEX
Aircraft PA24/L-SDGRY/S

Departure

Time 2026-04-23 15:51
Airport Mannheim-City Airport (EDFM)

Arrival

Time 2026-04-23 16:00
Airport Mannheim-City Airport (EDFM)
Time Latitude Longitude Altitude Speed Heading
2026-04-23 15:34 49.47558 8.52138 313 ft 0 kts 184°
2026-04-23 15:47 49.47557 8.52138 313 ft 3 kts 184°
2026-04-23 15:47 49.47540 8.52139 312 ft 3 kts 140°
2026-04-23 15:47 49.47522 8.52171 313 ft 7 kts 184°
2026-04-23 15:48 49.47459 8.52165 313 ft 11 kts 184°
2026-04-23 15:48 49.47374 8.52158 313 ft 14 kts 184°
2026-04-23 15:48 49.47294 8.52152 311 ft 9 kts 182°
2026-04-23 15:48 49.47279 8.52151 311 ft 0 kts 184°
2026-04-23 15:50 49.47246 8.52100 311 ft 17 kts 274°
2026-04-23 15:50 49.47263 8.51670 307 ft 73 kts 272°
2026-04-23 15:50 49.47293 8.50814 493 ft 85 kts 278°
2026-04-23 15:51 49.47333 8.49851 783 ft 91 kts 279°
2026-04-23 15:51 49.47305 8.48917 952 ft 87 kts 249°
2026-04-23 15:51 49.46820 8.48428 1009 ft 87 kts 186°
2026-04-23 15:51 49.46183 8.48485 1007 ft 94 kts 167°
2026-04-23 15:52 49.45737 8.49177 1055 ft 96 kts 110°
2026-04-23 15:52 49.45618 8.50182 1087 ft 96 kts 95°
2026-04-23 15:52 49.45551 8.51223 1104 ft 99 kts 92°
2026-04-23 15:52 49.45487 8.52245 1144 ft 97 kts 92°
2026-04-23 15:53 49.45435 8.53309 1119 ft 105 kts 89°
2026-04-23 15:53 49.45384 8.54444 1098 ft 106 kts 89°
2026-04-23 15:53 49.45532 8.55485 1111 ft 97 kts 45°
2026-04-23 15:53 49.46157 8.55863 1020 ft 99 kts
2026-04-23 15:54 49.46816 8.55716 964 ft 92 kts 315°
2026-04-23 15:54 49.47066 8.54791 815 ft 98 kts 292°
2026-04-23 15:54 49.47192 8.53823 669 ft 86 kts 274°
2026-04-23 15:54 49.47212 8.52967 513 ft 76 kts 278°
2026-04-23 15:55 49.47246 8.52157 371 ft 77 kts 275°
2026-04-23 15:55 49.47272 8.51413 310 ft 56 kts 282°
2026-04-23 15:55 49.47284 8.50801 355 ft 62 kts 272°
2026-04-23 15:55 49.47288 8.50151 478 ft 59 kts 273°
2026-04-23 15:56 49.47249 8.49500 635 ft 64 kts 255°
2026-04-23 15:56 49.47098 8.48787 766 ft 73 kts 226°
2026-04-23 15:56 49.46526 8.48617 835 ft 96 kts 180°
2026-04-23 15:56 49.45846 8.48746 957 ft 99 kts 149°
2026-04-23 15:57 49.45572 8.49643 1050 ft 98 kts 88°
2026-04-23 15:57 49.45538 8.50705 1080 ft 103 kts 88°
2026-04-23 15:57 49.45500 8.51792 1163 ft 99 kts 86°
2026-04-23 15:57 49.45494 8.52820 1168 ft 96 kts 85°
2026-04-23 15:58 49.45511 8.53836 1162 ft 96 kts 82°
2026-04-23 15:58 49.45544 8.54842 1084 ft 96 kts 81°
2026-04-23 15:58 49.45725 8.55757 1126 ft 88 kts 31°
2026-04-23 15:58 49.46333 8.55906 1019 ft 90 kts 357°
2026-04-23 15:59 49.46957 8.55872 927 ft 87 kts 345°
2026-04-23 15:59 49.47331 8.55298 958 ft 77 kts 265°
2026-04-23 15:59 49.47174 8.54432 756 ft 87 kts 268°
2026-04-23 15:59 49.47204 8.53522 601 ft 83 kts 277°
2026-04-23 16:00 49.47222 8.52681 464 ft 74 kts 280°
2026-04-23 16:00 49.47254 8.51901 329 ft 73 kts 278°
2026-04-23 16:00 49.47281 8.51255 308 ft 47 kts 267°
2026-04-23 16:00 49.47289 8.50590 435 ft 66 kts 272°
2026-04-23 16:01 49.47295 8.49857 702 ft 69 kts 273°
2026-04-23 16:01 49.47293 8.49033 883 ft 83 kts 274°
2026-04-23 16:01 49.47142 8.48244 969 ft 81 kts 214°
2026-04-23 16:01 49.46532 8.48163 965 ft 95 kts 180°
2026-04-23 16:02 49.46087 8.48218 983 ft 99 kts 175°
2026-04-23 16:02 49.45570 8.48833 1060 ft 99 kts 113°
2026-04-23 16:02 49.45452 8.49872 1113 ft 100 kts 86°
2026-04-23 16:02 49.45458 8.50930 1140 ft 98 kts 81°
2026-04-23 16:03 49.45507 8.51977 1135 ft 96 kts 81°
2026-04-23 16:03 49.45543 8.52993 1158 ft 96 kts 81°
2026-04-23 16:03 49.45578 8.54015 1172 ft 95 kts 81°
2026-04-23 16:03 49.45690 8.55003 1192 ft 95 kts 55°
2026-04-23 16:04 49.46239 8.55473 1209 ft 93 kts
2026-04-23 16:04 49.46854 8.55416 1180 ft 85 kts 338°
2026-04-23 16:04 49.47217 8.54746 1031 ft 84 kts 276°
2026-04-23 16:04 49.47172 8.53861 774 ft 82 kts 279°
2026-04-23 16:05 49.47222 8.53008 556 ft 78 kts 279°
2026-04-23 16:05 49.47241 8.52208 377 ft 72 kts 281°
2026-04-23 16:05 49.47273 8.51491 310 ft 55 kts 281°
2026-04-23 16:05 49.47283 8.50879 373 ft 64 kts 272°
2026-04-23 16:06 49.47298 8.50166 590 ft 70 kts 277°
2026-04-23 16:06 49.47309 8.49385 806 ft 76 kts 275°
2026-04-23 16:06 49.47287 8.48555 880 ft 75 kts 258°
2026-04-23 16:06 49.46870 8.48191 899 ft 78 kts 181°
2026-04-23 16:07 49.46306 8.48264 894 ft 84 kts 175°
2026-04-23 16:07 49.45716 8.48413 900 ft 87 kts 166°
2026-04-23 16:07 49.45452 8.49133 918 ft 84 kts 85°
2026-04-23 16:07 49.45481 8.50033 901 ft 85 kts 81°
2026-04-23 16:08 49.45523 8.50940 887 ft 88 kts 80°
2026-04-23 16:08 49.45573 8.51885 866 ft 88 kts 78°
2026-04-23 16:08 49.45641 8.52836 831 ft 90 kts 78°
2026-04-23 16:08 49.45694 8.53799 791 ft 89 kts 78°
2026-04-23 16:09 49.45733 8.54729 811 ft 86 kts 77°
2026-04-23 16:09 49.46143 8.55232 874 ft 84 kts
2026-04-23 16:09 49.46719 8.55205 926 ft 82 kts 348°
2026-04-23 16:09 49.47104 8.54634 886 ft 83 kts 292°
2026-04-23 16:10 49.47177 8.53781 719 ft 80 kts 275°
2026-04-23 16:10 49.47212 8.52991 597 ft 70 kts 282°
2026-04-23 16:10 49.47239 8.52214 419 ft 71 kts 280°
2026-04-23 16:10 49.47268 8.51520 311 ft 57 kts 280°
2026-04-23 16:11 49.47278 8.50902 384 ft 62 kts 271°
2026-04-23 16:11 49.47260 8.50226 616 ft 64 kts 268°
2026-04-23 16:11 49.47206 8.49505 847 ft 73 kts 269°
2026-04-23 16:11 49.46972 8.48874 945 ft 75 kts 200°
2026-04-23 16:12 49.46419 8.48929 1015 ft 88 kts 170°
2026-04-23 16:12 49.45803 8.49112 1055 ft 91 kts 169°
2026-04-23 16:12 49.45377 8.49705 1123 ft 88 kts 108°
2026-04-23 16:12 49.45311 8.50637 1098 ft 89 kts 79°
2026-04-23 16:13 49.45354 8.51602 1027 ft 89 kts 79°
2026-04-23 16:13 49.45446 8.53449 951 ft 85 kts 80°
2026-04-23 16:13 49.45642 8.54208 966 ft 74 kts 28°
2026-04-23 16:14 49.46147 8.54388 891 ft 76 kts
2026-04-23 16:14 49.46653 8.54342 837 ft 70 kts 337°
2026-04-23 16:14 49.47033 8.53856 700 ft 75 kts 307°
2026-04-23 16:14 49.47211 8.53103 541 ft 75 kts 280°
2026-04-23 16:15 49.47238 8.52319 408 ft 72 kts 279°
2026-04-23 16:15 49.47265 8.51581 308 ft 61 kts 282°
2026-04-23 16:15 49.47282 8.51140 309 ft 21 kts 276°
2026-04-23 16:15 49.47286 8.50970 313 ft 8 kts 253°
2026-04-23 16:16 49.47239 8.50972 312 ft 9 kts 125°
2026-04-23 16:16 49.47229 8.51115 310 ft 21 kts 92°
2026-04-23 16:16 49.47222 8.51349 310 ft 17 kts 94°
2026-04-23 16:16 49.47217 8.51494 310 ft 15 kts 94°
2026-04-23 16:17 49.47211 8.51673 308 ft 15 kts 97°
2026-04-23 16:17 49.47205 8.51852 310 ft 23 kts 93°
2026-04-23 16:17 49.47198 8.52040 311 ft 11 kts 90°
2026-04-23 16:17 49.47207 8.52099 311 ft 0 kts 48°
2026-04-23 16:18 49.47207 8.52100 311 ft 2 kts 48°
2026-04-23 16:18 49.47290 8.52151 311 ft 20 kts
2026-04-23 16:18 49.47436 8.52163 313 ft 18 kts
2026-04-23 16:18 49.47552 8.52175 313 ft 11 kts
2026-04-23 16:19 49.47578 8.52139 313 ft 6 kts 193°
2026-04-23 16:19 49.47554 8.52137 313 ft 0 kts 184°